Location: Unspecified
(51.5147°N, 7.4673°E)
Time: 01:35:50
(UTC+01:00)

A-11 Canister half - Pass Details

Date: 18 February 2026
Orbit: 1512 x 1687 km, 47.2° (Epoch: 8 March)

Event Time Altitude Azimuth Distance (km) Brightness Sun altitude
Rises 01:58:08 0° 278° (W) 4,907 - -47.4°
Reaches altitude 10° 02:01:23 10° 275° (W) 3,900 - -47.2°
Maximum altitude 02:11:03 59° 200° (SSW) 1,816 - -46.4°
Drops below altitude 10° 02:20:21 10° 124° (SE) 3,758 - -45.6°
Exits shadow 02:21:28 - 122° (ESE) 4,105 11.2 -45.5°
Sets 02:23:25 0° 121° (ESE) 4,719 11.6 -45.4°
